User: anonymous   Login
Location: Coleto Creek Park and Reservoir
(28.7196°N, 97.1740°W)
Time: 09:09:57
(UTC-05:00)
Language:

Hubble Space Telescope - Orbit

View from above orbital plane
View from above orbital plane
View from above satellite
View from above satellite

Ground track
Ground track

The orbit data is extracted from the following two-line orbital elements,

1 20580U 90037B   16207.90570602  .00000755  00000-0  36021-4 0  9992
2 20580  28.4709   3.0206 0002586 265.4286 343.3071 15.08435480240962
Epoch (UTC): 25 July 2016 21:44:13
Eccentricity: 0.0002586
inclination: 28.4709°
perigee height: 539 km
apogee height: 543 km
right ascension of ascending node: 3.0206°
argument of perigee: 265.4286°
revolutions per day: 15.08435480
mean anomaly at epoch: 343.3071°
orbit number at epoch: 24096

The dashed part of the orbit path shows where the satellite is in the earth's shadow,  

DLR